| time (UTC) | temp F | wind direction | speed MPH | gust MPH | rain 1hr in | rain 24hr in | rain mn in | humidity % | barometer mb |
| 20260902092511 | 74 | 196 | 1.0 | 4.0 | 0.00 | 0.00 | 0.00 | 87 | 1016.4 |
| 20260902092008 | 74 | 213 | 1.0 | 5.0 | 0.00 | 0.00 | 0.00 | 87 | 1016.4 |
| 20260902091537 | 76 | 116 | 0.0 | 0.0 | 0.00 | 0.00 | 0.00 | 58 | 1014.6 |
| 20260902091533 | 74 | 218 | 2.0 | 5.0 | 0.00 | 0.00 | 0.00 | 87 | 1016.3 |
| 20260902091009 | 75 | 192 | 1.0 | 5.0 | 0.00 | 0.00 | 0.00 | 87 | 1016.3 |
| 20260902090511 | 75 | 171 | 1.0 | 4.0 | 0.00 | 0.00 | 0.00 | 87 | 1016.3 |
| 20260902090030 | 77 | 116 | 0.0 | 0.0 | 0.00 | 0.00 | 0.00 | 56 | 1014.5 |
| 20260902090023 | 75 | 172 | 0.0 | 3.0 | 0.00 | 0.00 | 0.00 | 86 | 1016.2 |
| 20260902085513 | 75 | 190 | 1.0 | 4.0 | 0.00 | 0.00 | 0.00 | 86 | 1016.1 |
| 20260902085015 | 75 | 197 | 1.0 | 4.0 | 0.00 | 0.00 | 0.00 | 86 | 1016.0 |
| 20260902084528 | 75 | 196 | 1.0 | 4.0 | 0.00 | 0.00 | 0.00 | 86 | 1016.0 |
| 20260902084525 | 79 | 117 | 0.0 | 0.0 | 0.00 | 0.00 | 0.00 | 54 | 1014.7 |
| 20260902084015 | 75 | 196 | 0.0 | 4.0 | 0.00 | 0.00 | 0.00 | 85 | 1016.0 |
| 20260902083521 | 76 | 190 | 0.0 | 4.0 | 0.00 | 0.00 | 0.00 | 85 | 1016.0 |
| 20260902083030 | 76 | 196 | 0.0 | 3.0 | 0.00 | 0.00 | 0.00 | 85 | 1016.0 |
| 20260902082516 | 76 | 205 | 0.0 | 3.0 | 0.00 | 0.00 | 0.00 | 85 | 1016.1 |
| 20260902082017 | 76 | 209 | 0.0 | 6.0 | 0.00 | 0.00 | 0.00 | 85 | 1016.0 |
| 20260902081526 | 76 | 205 | 0.0 | 6.0 | 0.00 | 0.00 | 0.00 | 85 | 1015.9 |
| 20260902081519 | 80 | 116 | 0.0 | 3.0 | 0.00 | 0.00 | 0.00 | 53 | 1014.6 |
| 20260902081008 | 76 | 185 | 1.0 | 4.0 | 0.00 | 0.00 | 0.00 | 85 | 1015.8 |
| 20260902080510 | 76 | 165 | 1.0 | 3.0 | 0.00 | 0.00 | 0.00 | 84 | 1015.9 |
| 20260902080019 | 76 | 209 | 1.0 | 3.0 | 0.00 | 0.00 | 0.00 | 84 | 1015.9 |
| 20260902080016 | 80 | 115 | 0.0 | 1.0 | 0.00 | 0.00 | 0.00 | 54 | 1014.7 |
| 20260902075512 | 76 | 184 | 0.0 | 4.0 | 0.00 | 0.00 | 0.00 | 84 | 1015.9 |
| 20260902075011 | 76 | 214 | 1.0 | 5.0 | 0.00 | 0.00 | 0.00 | 84 | 1015.9 |
| 20260902074530 | 77 | 182 | 1.0 | 5.0 | 0.00 | 0.00 | 0.00 | 84 | 1015.9 |
| 20260902074515 | 81 | 116 | 0.0 | 1.0 | 0.00 | 0.00 | 0.00 | 52 | 1014.7 |
| 20260902074015 | 77 | 204 | 0.0 | 5.0 | 0.00 | 0.00 | 0.00 | 84 | 1016.0 |
| 20260902073517 | 77 | 215 | 2.0 | 6.0 | 0.00 | 0.00 | 0.00 | 85 | 1016.0 |
| 20260902073028 | 77 | 238 | 2.0 | 6.0 | 0.00 | 0.00 | 0.00 | 85 | 1016.1 |
| 20260902073009 | 81 | 116 | 0.0 | 4.0 | 0.00 | 0.00 | 0.00 | 52 | 1014.9 |
| 20260902072515 | 77 | 191 | 1.0 | 7.0 | 0.00 | 0.00 | 0.00 | 85 | 1016.1 |
| 20260902072007 | 77 | 184 | 2.0 | 7.0 | 0.00 | 0.00 | 0.00 | 85 | 1016.1 |
| 20260902071608 | 81 | 118 | 0.0 | 5.0 | 0.00 | 0.00 | 0.00 | 52 | 1014.9 |
| 20260902071526 | 77 | 196 | 2.0 | 7.0 | 0.00 | 0.00 | 0.00 | 85 | 1016.1 |
| 20260902071012 | 77 | 198 | 2.0 | 7.0 | 0.00 | 0.00 | 0.00 | 84 | 1016.1 |
| 20260902070507 | 77 | 205 | 3.0 | 6.0 | 0.00 | 0.00 | 0.00 | 84 | 1016.1 |
| 20260902070013 | 78 | 209 | 2.0 | 6.0 | 0.00 | 0.00 | 0.00 | 84 | 1016.2 |
| 20260902070003 | 81 | 110 | 5.0 | 8.0 | 0.00 | 0.00 | 0.00 | 51 | 1014.9 |
| 20260902065509 | 78 | 202 | 2.0 | 6.0 | 0.00 | 0.00 | 0.00 | 84 | 1016.0 |
| 20260902065008 | 78 | 221 | 2.0 | 7.0 | 0.00 | 0.00 | 0.00 | 83 | 1015.9 |
| 20260902064559 | 82 | 128 | 3.0 | 6.0 | 0.00 | 0.00 | 0.00 | 51 | 1014.9 |
| 20260902064502 | 78 | 203 | 2.0 | 7.0 | 0.00 | 0.00 | 0.00 | 83 | 1015.9 |
| 20260902064003 | 78 | 209 | 1.0 | 7.0 | 0.00 | 0.00 | 0.00 | 83 | 1016.0 |
| 20260902063502 | 78 | 208 | 2.0 | 6.0 | 0.00 | 0.00 | 0.00 | 83 | 1016.0 |
| 20260902063055 | 82 | 124 | 0.0 | 4.0 | 0.00 | 0.00 | 0.00 | 50 | 1015.0 |
| 20260902063003 | 78 | 180 | 1.0 | 6.0 | 0.00 | 0.00 | 0.00 | 83 | 1016.0 |
| 20260902062503 | 78 | 206 | 1.0 | 6.0 | 0.00 | 0.00 | 0.00 | 83 | 1016.0 |
| 20260902062003 | 78 | 184 | 1.0 | 6.0 | 0.00 | 0.00 | 0.00 | 83 | 1015.9 |
| 20260902061605 | 83 | 117 | 5.0 | 8.0 | 0.00 | 0.00 | 0.00 | 49 | 1015.0 |
| 20260902061512 | 78 | 196 | 1.0 | 5.0 | 0.00 | 0.00 | 0.00 | 83 | 1016.0 |
| 20260902061003 | 78 | 213 | 2.0 | 6.0 | 0.00 | 0.00 | 0.00 | 83 | 1016.1 |
| 20260902060508 | 78 | 202 | 1.0 | 6.0 | 0.00 | 0.00 | 0.00 | 83 | 1016.1 |
| 20260902060056 | 83 | 119 | 5.0 | 8.0 | 0.00 | 0.00 | 0.00 | 48 | 1014.8 |
| 20260902060021 | 78 | 215 | 2.0 | 5.0 | 0.00 | 0.00 | 0.00 | 83 | 1016.1 |
| 20260902055508 | 78 | 212 | 1.0 | 4.0 | 0.00 | 0.00 | 0.00 | 83 | 1016.2 |
| 20260902055006 | 78 | 188 | 1.0 | 7.0 | 0.00 | 0.00 | 0.00 | 83 | 1016.2 |
| 20260902054548 | 84 | 132 | 4.0 | 8.0 | 0.00 | 0.00 | 0.00 | 47 | 1014.8 |
| 20260902054532 | 78 | 213 | 1.0 | 7.0 | 0.00 | 0.00 | 0.00 | 83 | 1016.2 |
| 20260902054008 | 78 | 233 | 1.0 | 5.0 | 0.00 | 0.00 | 0.00 | 83 | 1016.2 |
| 20260902053503 | 78 | 207 | 2.0 | 5.0 | 0.00 | 0.00 | 0.00 | 83 | 1016.2 |
| 20260902053041 | 84 | 131 | 5.0 | 9.0 | 0.00 | 0.00 | 0.00 | 46 | 1014.8 |
| 20260902053005 | 78 | 207 | 1.0 | 4.0 | 0.00 | 0.00 | 0.00 | 83 | 1016.2 |
| 20260902052503 | 78 | 216 | 2.0 | 4.0 | 0.00 | 0.00 | 0.00 | 83 | 1016.1 |
| 20260902052003 | 78 | 189 | 1.0 | 4.0 | 0.00 | 0.00 | 0.00 | 83 | 1016.2 |
| 20260902051536 | 85 | 136 | 5.0 | 11.0 | 0.00 | 0.00 | 0.00 | 46 | 1014.7 |
| 20260902051510 | 78 | 196 | 1.0 | 4.0 | 0.00 | 0.00 | 0.00 | 83 | 1016.2 |
| 20260902051006 | 78 | 206 | 1.0 | 5.0 | 0.00 | 0.00 | 0.00 | 83 | 1016.3 |
| 20260902050504 | 78 | 178 | 1.0 | 6.0 | 0.00 | 0.00 | 0.00 | 83 | 1016.2 |
| 20260902050039 | 85 | 112 | 5.0 | 10.0 | 0.00 | 0.00 | 0.00 | 44 | 1014.7 |
| 20260902050017 | 78 | 187 | 2.0 | 6.0 | 0.00 | 0.00 | 0.00 | 83 | 1016.3 |
| 20260902045507 | 78 | 200 | 2.0 | 6.0 | 0.00 | 0.00 | 0.00 | 83 | 1016.2 |
| 20260902045010 | 78 | 190 | 2.0 | 5.0 | 0.00 | 0.00 | 0.00 | 83 | 1016.2 |
| 20260902044531 | 86 | 107 | 7.0 | 13.0 | 0.00 | 0.00 | 0.00 | 43 | 1014.6 |
| 20260902044518 | 78 | 220 | 2.0 | 5.0 | 0.00 | 0.00 | 0.00 | 83 | 1016.1 |
| 20260902044010 | 78 | 245 | 1.0 | 5.0 | 0.00 | 0.00 | 0.00 | 83 | 1016.3 |
| 20260902043514 | 78 | 211 | 2.0 | 5.0 | 0.00 | 0.00 | 0.00 | 83 | 1016.2 |
| 20260902043029 | 85 | 116 | 8.0 | 12.0 | 0.00 | 0.00 | 0.00 | 43 | 1014.5 |
| 20260902043016 | 78 | 207 | 2.0 | 5.0 | 0.00 | 0.00 | 0.00 | 83 | 1016.2 |
| 20260902042510 | 78 | 207 | 1.0 | 5.0 | 0.00 | 0.00 | 0.00 | 83 | 1016.2 |
| 20260902042003 | 78 | 207 | 2.0 | 6.0 | 0.00 | 0.00 | 0.00 | 83 | 1016.2 |
| 20260902041527 | 84 | 118 | 0.0 | 0.0 | 0.00 | 0.00 | 0.00 | 43 | 1014.4 |
| 20260902041507 | 78 | 207 | 2.0 | 6.0 | 0.00 | 0.00 | 0.00 | 83 | 1016.3 |
| 20260902041005 | 78 | 216 | 1.0 | 4.0 | 0.00 | 0.00 | 0.00 | 83 | 1016.3 |
| 20260902040503 | 79 | 221 | 1.0 | 4.0 | 0.00 | 0.00 | 0.00 | 83 | 1016.4 |
| 20260902040025 | 86 | 118 | 0.0 | 0.0 | 0.00 | 0.00 | 0.00 | 40 | 1014.2 |
| 20260902040012 | 79 | 229 | 1.0 | 5.0 | 0.00 | 0.00 | 0.00 | 83 | 1016.3 |
| 20260902035508 | 79 | 196 | 0.0 | 5.0 | 0.00 | 0.00 | 0.00 | 83 | 1016.3 |
| 20260902035008 | 79 | 211 | 1.0 | 5.0 | 0.00 | 0.00 | 0.00 | 83 | 1016.3 |
| 20260902034523 | 88 | 118 | 0.0 | 5.0 | 0.00 | 0.00 | 0.00 | 38 | 1014.0 |
| 20260902034518 | 79 | 219 | 2.0 | 5.0 | 0.00 | 0.00 | 0.00 | 84 | 1016.2 |
| 20260902034009 | 79 | 219 | 1.0 | 5.0 | 0.00 | 0.00 | 0.00 | 84 | 1016.2 |
| 20260902033509 | 79 | 192 | 1.0 | 5.0 | 0.00 | 0.00 | 0.00 | 84 | 1016.2 |
| 20260902033021 | 88 | 111 | 2.0 | 6.0 | 0.00 | 0.00 | 0.00 | 38 | 1014.1 |
| 20260902033018 | 79 | 209 | 1.0 | 5.0 | 0.00 | 0.00 | 0.00 | 84 | 1016.2 |
| 20260902032512 | 79 | 205 | 1.0 | 6.0 | 0.00 | 0.00 | 0.00 | 84 | 1016.2 |
| 20260902032012 | 79 | 192 | 1.0 | 6.0 | 0.00 | 0.00 | 0.00 | 84 | 1016.2 |
| 20260902031522 | 79 | 198 | 0.0 | 4.0 | 0.00 | 0.00 | 0.00 | 84 | 1016.2 |
| 20260902031003 | 80 | 180 | 1.0 | 5.0 | 0.00 | 0.00 | 0.00 | 83 | 1016.2 |
| 20260902030502 | 80 | 200 | 2.0 | 5.0 | 0.00 | 0.00 | 0.00 | 83 | 1016.2 |
| 20260902030018 | 88 | 99 | 2.0 | 6.0 | 0.00 | 0.00 | 0.00 | 37 | 1013.6 |
| 20260902030008 | 80 | 221 | 1.0 | 5.0 | 0.00 | 0.00 | 0.00 | 83 | 1016.2 |
| 20260902025506 | 80 | 197 | 2.0 | 5.0 | 0.00 | 0.00 | 0.00 | 83 | 1016.2 |
| 20260902025008 | 80 | 211 | 1.0 | 5.0 | 0.00 | 0.00 | 0.00 | 82 | 1016.2 |
| 20260902024634 | 88 | 101 | 3.0 | 8.0 | 0.00 | 0.00 | 0.00 | 37 | 1013.4 |
| 20260902024514 | 80 | 194 | 1.0 | 5.0 | 0.00 | 0.00 | 0.00 | 82 | 1016.3 |
| 20260902024011 | 80 | 217 | 2.0 | 5.0 | 0.00 | 0.00 | 0.00 | 82 | 1016.2 |
| 20260902023509 | 81 | 215 | 1.0 | 4.0 | 0.00 | 0.00 | 0.00 | 81 | 1016.2 |
| 20260902023022 | 81 | 175 | 2.0 | 6.0 | 0.00 | 0.00 | 0.00 | 81 | 1016.2 |
| 20260902023012 | 88 | 80 | 1.0 | 5.0 | 0.00 | 0.00 | 0.00 | 38 | 1013.2 |
| 20260902022512 | 81 | 173 | 1.0 | 6.0 | 0.00 | 0.00 | 0.00 | 81 | 1016.3 |
| 20260902022013 | 81 | 211 | 1.0 | 5.0 | 0.00 | 0.00 | 0.00 | 80 | 1016.3 |
| 20260902021527 | 81 | 233 | 1.0 | 6.0 | 0.00 | 0.00 | 0.00 | 80 | 1016.3 |
| 20260902021514 | 88 | 80 | 0.0 | 4.0 | 0.00 | 0.00 | 0.00 | 38 | 1012.9 |
| 20260902021011 | 82 | 202 | 0.0 | 6.0 | 0.00 | 0.00 | 0.00 | 79 | 1016.3 |
| 20260902020512 | 82 | 195 | 2.0 | 6.0 | 0.00 | 0.00 | 0.00 | 79 | 1016.1 |
| 20260902020009 | 88 | 79 | 0.0 | 1.0 | 0.00 | 0.00 | 0.00 | 38 | 1012.8 |
| 20260902020007 | 82 | 207 | 2.0 | 5.0 | 0.00 | 0.00 | 0.00 | 79 | 1016.1 |
| 20260902015503 | 82 | 201 | 3.0 | 6.0 | 0.00 | 0.00 | 0.00 | 79 | 1016.1 |
| 20260902015006 | 82 | 204 | 2.0 | 7.0 | 0.00 | 0.00 | 0.00 | 79 | 1016.1 |
| 20260902014516 | 83 | 184 | 2.0 | 7.0 | 0.00 | 0.00 | 0.00 | 79 | 1016.0 |
| 20260902014508 | 89 | 101 | 0.0 | 2.0 | 0.00 | 0.00 | 0.00 | 37 | 1012.6 |
| 20260902014008 | 83 | 181 | 3.0 | 6.0 | 0.00 | 0.00 | 0.00 | 78 | 1016.0 |
| 20260902013507 | 83 | 202 | 2.0 | 8.0 | 0.00 | 0.00 | 0.00 | 78 | 1016.0 |
| 20260902013018 | 83 | 198 | 2.0 | 8.0 | 0.00 | 0.00 | 0.00 | 78 | 1015.8 |
| 20260902013006 | 90 | 101 | 0.0 | 3.0 | 0.00 | 0.00 | 0.00 | 35 | 1012.5 |
| 20260902012510 | 84 | 213 | 2.0 | 5.0 | 0.00 | 0.00 | 0.00 | 77 | 1015.8 |
| 20260902012011 | 84 | 225 | 2.0 | 6.0 | 0.00 | 0.00 | 0.00 | 77 | 1015.7 |
| 20260902011527 | 84 | 207 | 2.0 | 6.0 | 0.00 | 0.00 | 0.00 | 76 | 1015.6 |
| 20260902011504 | 91 | 106 | 0.0 | 3.0 | 0.00 | 0.00 | 0.00 | 34 | 1012.4 |
| 20260902011010 | 84 | 184 | 2.0 | 6.0 | 0.00 | 0.00 | 0.00 | 76 | 1015.6 |
| 20260902010513 | 85 | 196 | 2.0 | 8.0 | 0.00 | 0.00 | 0.00 | 75 | 1015.6 |
| 20260902010050 | 85 | 239 | 1.0 | 8.0 | 0.00 | 0.00 | 0.00 | 75 | 1015.6 |
| 20260902010007 | 92 | 100 | 1.0 | 5.0 | 0.00 | 0.00 | 0.00 | 32 | 1012.4 |
| 20260902005512 | 85 | 285 | 3.0 | 6.0 | 0.00 | 0.00 | 0.00 | 74 | 1015.6 |
| 20260902005010 | 86 | 205 | 2.0 | 6.0 | 0.00 | 0.00 | 0.00 | 73 | 1015.5 |
| 20260902004600 | 93 | 101 | 1.0 | 3.0 | 0.00 | 0.00 | 0.00 | 30 | 1012.4 |
| 20260902004514 | 86 | 188 | 1.0 | 7.0 | 0.00 | 0.00 | 0.00 | 73 | 1015.5 |
| 20260902004004 | 86 | 203 | 3.0 | 7.0 | 0.00 | 0.00 | 0.00 | 72 | 1015.5 |
| 20260902003510 | 87 | 193 | 3.0 | 6.0 | 0.00 | 0.00 | 0.00 | 72 | 1015.4 |
| 20260902003057 | 94 | 94 | 0.0 | 2.0 | 0.00 | 0.00 | 0.00 | 29 | 1012.3 |
| 20260902003016 | 87 | 222 | 2.0 | 5.0 | 0.00 | 0.00 | 0.00 | 71 | 1015.5 |
| 20260902002510 | 87 | 198 | 2.0 | 4.0 | 0.00 | 0.00 | 0.00 | 71 | 1015.5 |
| 20260902002012 | 88 | 234 | 1.0 | 6.0 | 0.00 | 0.00 | 0.00 | 70 | 1015.4 |
| 20260902001606 | 94 | 94 | 2.0 | 9.0 | 0.00 | 0.00 | 0.00 | 28 | 1012.3 |
| 20260902001524 | 88 | 204 | 1.0 | 6.0 | 0.00 | 0.00 | 0.00 | 69 | 1015.4 |
| 20260902001011 | 88 | 230 | 1.0 | 6.0 | 0.00 | 0.00 | 0.00 | 68 | 1015.4 |
| 20260902000517 | 89 | 211 | 1.0 | 6.0 | 0.00 | 0.00 | 0.00 | 67 | 1015.4 |
| 20260902000053 | 95 | 103 | 5.0 | 13.0 | 0.00 | 0.00 | 0.00 | 28 | 1012.5 |
| 20260902000037 | 89 | 192 | 1.0 | 4.0 | 0.00 | 0.00 | 0.00 | 67 | 1015.4 |
| 20260901235513 | 89 | 210 | 1.0 | 5.0 | 0.00 | 0.00 | 0.00 | 66 | 1015.5 |
| 20260901235016 | 90 | 215 | 2.0 | 5.0 | 0.00 | 0.00 | 0.00 | 66 | 1015.5 |
| 20260901234603 | 96 | 112 | 4.0 | 8.0 | 0.00 | 0.00 | 0.00 | 28 | 1012.5 |
| 20260901234524 | 90 | 213 | 1.0 | 5.0 | 0.00 | 0.00 | 0.00 | 65 | 1015.6 |
| 20260901234012 | 90 | 201 | 2.0 | 6.0 | 0.00 | 0.00 | 0.00 | 64 | 1015.6 |
| 20260901233506 | 91 | 198 | 2.0 | 6.0 | 0.00 | 0.00 | 0.00 | 64 | 1015.7 |
| 20260901233102 | 96 | 96 | 3.0 | 9.0 | 0.00 | 0.00 | 0.00 | 27 | 1012.5 |
| 20260901233014 | 91 | 147 | 1.0 | 6.0 | 0.00 | 0.00 | 0.00 | 64 | 1015.6 |
| 20260901232508 | 92 | 261 | 2.0 | 6.0 | 0.00 | 0.00 | 0.00 | 63 | 1015.6 |
| 20260901232009 | 92 | 234 | 1.0 | 4.0 | 0.00 | 0.00 | 0.00 | 63 | 1015.6 |
| 20260901231546 | 96 | 91 | 6.0 | 12.0 | 0.00 | 0.00 | 0.00 | 27 | 1012.5 |
| 20260901231516 | 92 | 202 | 0.0 | 6.0 | 0.00 | 0.00 | 0.00 | 61 | 1015.6 |
| 20260901231009 | 93 | 182 | 2.0 | 6.0 | 0.00 | 0.00 | 0.00 | 61 | 1015.6 |
| 20260901230513 | 93 | 213 | 1.0 | 7.0 | 0.00 | 0.00 | 0.00 | 60 | 1015.6 |
| 20260901230043 | 96 | 115 | 9.0 | 13.0 | 0.00 | 0.00 | 0.00 | 27 | 1012.6 |
| 20260901230030 | 93 | 165 | 4.0 | 7.0 | 0.00 | 0.00 | 0.00 | 59 | 1015.5 |
| 20260901225516 | 93 | 180 | 3.0 | 7.0 | 0.00 | 0.00 | 0.00 | 59 | 1015.5 |
| 20260901225011 | 94 | 181 | 3.0 | 6.0 | 0.00 | 0.00 | 0.00 | 59 | 1015.6 |
| 20260901224541 | 96 | 60 | 8.0 | 12.0 | 0.00 | 0.00 | 0.00 | 27 | 1012.4 |
| 20260901224539 | 94 | 179 | 1.0 | 7.0 | 0.00 | 0.00 | 0.00 | 58 | 1015.6 |
| 20260901224014 | 94 | 174 | 1.0 | 7.0 | 0.00 | 0.00 | 0.00 | 57 | 1015.5 |
| 20260901223512 | 94 | 166 | 2.0 | 9.0 | 0.00 | 0.00 | 0.00 | 57 | 1015.4 |
| 20260901223043 | 94 | 182 | 4.0 | 9.0 | 0.00 | 0.00 | 0.00 | 57 | 1015.5 |
| 20260901223039 | 97 | 103 | 11.0 | 15.0 | 0.00 | 0.00 | 0.00 | 26 | 1012.5 |
| 20260901222514 | 95 | 323 | 0.0 | 7.0 | 0.00 | 0.00 | 0.00 | 56 | 1015.5 |
| 20260901222008 | 95 | 233 | 2.0 | 8.0 | 0.00 | 0.00 | 0.00 | 57 | 1015.5 |
| 20260901221537 | 97 | 66 | 6.0 | 13.0 | 0.00 | 0.00 | 0.00 | 27 | 1012.4 |
| 20260901221514 | 95 | 209 | 2.0 | 8.0 | 0.00 | 0.00 | 0.00 | 58 | 1015.5 |
| 20260901221008 | 94 | 281 | 2.0 | 8.0 | 0.00 | 0.00 | 0.00 | 57 | 1015.5 |
| 20260901220509 | 95 | 277 | 3.0 | 8.0 | 0.00 | 0.00 | 0.00 | 56 | 1015.6 |
| 20260901220036 | 98 | 101 | 5.0 | 12.0 | 0.00 | 0.00 | 0.00 | 26 | 1012.4 |
| 20260901220026 | 95 | 298 | 1.0 | 7.0 | 0.00 | 0.00 | 0.00 | 55 | 1015.5 |
| 20260901215511 | 95 | 313 | 2.0 | 9.0 | 0.00 | 0.00 | 0.00 | 55 | 1015.4 |
| 20260901215013 | 95 | 280 | 4.0 | 9.0 | 0.00 | 0.00 | 0.00 | 55 | 1015.5 |
| 20260901214539 | 97 | 109 | 0.0 | 7.0 | 0.00 | 0.00 | 0.00 | 26 | 1012.6 |
| 20260901214528 | 95 | 346 | 1.0 | 7.0 | 0.00 | 0.00 | 0.00 | 57 | 1015.5 |
| 20260901214003 | 95 | 188 | 4.0 | 12.0 | 0.00 | 0.00 | 0.00 | 57 | 1015.4 |
| 20260901213505 | 95 | 287 | 3.0 | 12.0 | 0.00 | 0.00 | 0.00 | 55 | 1015.5 |
| 20260901213029 | 98 | 124 | 2.0 | 13.0 | 0.00 | 0.00 | 0.00 | 25 | 1012.7 |
| 20260901213009 | 95 | 187 | 4.0 | 9.0 | 0.00 | 0.00 | 0.00 | 56 | 1015.5 |
| 20260901212503 | 95 | 211 | 5.0 | 9.0 | 0.00 | 0.00 | 0.00 | 56 | 1015.5 |
| 20260901212003 | 96 | 230 | 2.0 | 8.0 | 0.00 | 0.00 | 0.00 | 56 | 1015.6 |
| 20260901211528 | 97 | 83 | 5.0 | 21.0 | 0.00 | 0.00 | 0.00 | 26 | 1012.9 |
| 20260901211523 | 96 | 278 | 1.0 | 10.0 | 0.00 | 0.00 | 0.00 | 58 | 1015.6 |
| 20260901211008 | 96 | 271 | 3.0 | 10.0 | 0.00 | 0.00 | 0.00 | 56 | 1015.6 |
| 20260901210508 | 96 | 169 | 3.0 | 9.0 | 0.00 | 0.00 | 0.00 | 58 | 1015.6 |
| 20260901210032 | 96 | 280 | 4.0 | 10.0 | 0.00 | 0.00 | 0.00 | 57 | 1015.7 |
| 20260901210024 | 98 | 42 | 6.0 | 13.0 | 0.00 | 0.00 | 0.00 | 26 | 1013.1 |
| 20260901205511 | 96 | 180 | 4.0 | 10.0 | 0.00 | 0.00 | 0.00 | 58 | 1015.6 |
| 20260901205011 | 96 | 180 | 2.0 | 9.0 | 0.00 | 0.00 | 0.00 | 60 | 1015.7 |
| 20260901204529 | 96 | 264 | 1.0 | 9.0 | 0.00 | 0.00 | 0.00 | 59 | 1015.7 |
| 20260901204521 | 98 | 41 | 8.0 | 15.0 | 0.00 | 0.00 | 0.00 | 26 | 1013.4 |
| 20260901204013 | 96 | 181 | 4.0 | 9.0 | 0.00 | 0.00 | 0.00 | 59 | 1015.7 |
| 20260901203513 | 95 | 224 | 3.0 | 9.0 | 0.00 | 0.00 | 0.00 | 59 | 1015.7 |
| 20260901203026 | 95 | 44 | 3.0 | 8.0 | 0.00 | 0.00 | 0.00 | 58 | 1015.7 |
| 20260901203019 | 97 | 103 | 7.0 | 14.0 | 0.00 | 0.00 | 0.00 | 28 | 1013.4 |
| 20260901202503 | 95 | 148 | 3.0 | 8.0 | 0.00 | 0.00 | 0.00 | 60 | 1015.8 |
| 20260901202003 | 95 | 183 | 2.0 | 8.0 | 0.00 | 0.00 | 0.00 | 58 | 1015.7 |
| 20260901201616 | 96 | 141 | 3.0 | 10.0 | 0.00 | 0.00 | 0.00 | 29 | 1013.5 |
| 20260901201509 | 95 | 167 | 3.0 | 11.0 | 0.00 | 0.00 | 0.00 | 61 | 1015.8 |
| 20260901201003 | 95 | 190 | 4.0 | 11.0 | 0.00 | 0.00 | 0.00 | 60 | 1015.8 |
| 20260901200504 | 95 | 53 | 3.0 | 9.0 | 0.00 | 0.00 | 0.00 | 60 | 1015.8 |
| 20260901200036 | 95 | 246 | 2.0 | 9.0 | 0.00 | 0.00 | 0.00 | 61 | 1015.8 |
| 20260901200025 | 97 | 131 | 4.0 | 14.0 | 0.00 | 0.00 | 0.00 | 27 | 1013.7 |
| 20260901195510 | 95 | 169 | 5.0 | 8.0 | 0.00 | 0.00 | 0.00 | 60 | 1015.8 |
| 20260901195007 | 95 | 187 | 2.0 | 9.0 | 0.00 | 0.00 | 0.00 | 60 | 1015.8 |
| 20260901194523 | 95 | 174 | 3.0 | 9.0 | 0.00 | 0.00 | 0.00 | 59 | 1015.9 |
| 20260901194517 | 97 | 161 | 4.0 | 12.0 | 0.00 | 0.00 | 0.00 | 30 | 1013.8 |
| 20260901194011 | 95 | 277 | 3.0 | 8.0 | 0.00 | 0.00 | 0.00 | 60 | 1015.9 |
| 20260901193512 | 95 | 228 | 2.0 | 13.0 | 0.00 | 0.00 | 0.00 | 60 | 1016.0 |
| 20260901193028 | 95 | 149 | 4.0 | 13.0 | 0.00 | 0.00 | 0.00 | 60 | 1016.0 |
| 20260901193009 | 97 | 94 | 2.0 | 16.0 | 0.00 | 0.00 | 0.00 | 29 | 1014.1 |
| 20260901192513 | 95 | 175 | 6.0 | 11.0 | 0.00 | 0.00 | 0.00 | 59 | 1016.0 |
| 20260901192015 | 95 | 184 | 4.0 | 10.0 | 0.00 | 0.00 | 0.00 | 61 | 1016.1 |
| 20260901191509 | 95 | 178 | 3.0 | 9.0 | 0.00 | 0.00 | 0.00 | 61 | 1016.1 |
| 20260901191506 | 95 | 62 | 5.0 | 12.0 | 0.00 | 0.00 | 0.00 | 30 | 1014.2 |
| 20260901191008 | 95 | 125 | 4.0 | 8.0 | 0.00 | 0.00 | 0.00 | 61 | 1016.1 |
| 20260901190503 | 94 | 223 | 3.0 | 8.0 | 0.00 | 0.00 | 0.00 | 62 | 1016.1 |
| 20260901190013 | 94 | 165 | 1.0 | 8.0 | 0.00 | 0.00 | 0.00 | 62 | 1016.1 |
| 20260901190006 | 98 | 100 | 1.0 | 14.0 | 0.00 | 0.00 | 0.00 | 27 | 1014.3 |
| 20260901185508 | 94 | 194 | 2.0 | 8.0 | 0.00 | 0.00 | 0.00 | 62 | 1016.2 |
| 20260901185008 | 94 | 240 | 2.0 | 9.0 | 0.00 | 0.00 | 0.00 | 63 | 1016.3 |
| 20260901184520 | 94 | 281 | 2.0 | 10.0 | 0.00 | 0.00 | 0.00 | 63 | 1016.4 |
| 20260901184502 | 97 | 24 | 0.0 | 8.0 | 0.00 | 0.00 | 0.00 | 27 | 1014.6 |
| 20260901184010 | 94 | 286 | 3.0 | 10.0 | 0.00 | 0.00 | 0.00 | 63 | 1016.4 |
| 20260901183511 | 94 | 219 | 5.0 | 11.0 | 0.00 | 0.00 | 0.00 | 63 | 1016.4 |
| 20260901183102 | 98 | 120 | 8.0 | 14.0 | 0.00 | 0.00 | 0.00 | 28 | 1014.9 |
| 20260901183022 | 93 | 221 | 3.0 | 12.0 | 0.00 | 0.00 | 0.00 | 65 | 1016.4 |
| 20260901182515 | 93 | 171 | 1.0 | 12.0 | 0.00 | 0.00 | 0.00 | 66 | 1016.4 |
| 20260901182013 | 93 | 194 | 4.0 | 10.0 | 0.00 | 0.00 | 0.00 | 66 | 1016.4 |
| 20260901181555 | 98 | 207 | 2.0 | 7.0 | 0.00 | 0.00 | 0.00 | 27 | 1015.2 |
| 20260901181535 | 93 | 174 | 2.0 | 10.0 | 0.00 | 0.00 | 0.00 | 65 | 1016.4 |
| 20260901181016 | 93 | 304 | 3.0 | 10.0 | 0.00 | 0.00 | 0.00 | 64 | 1016.4 |
| 20260901180516 | 94 | 211 | 4.0 | 10.0 | 0.00 | 0.00 | 0.00 | 64 | 1016.5 |
| 20260901180052 | 98 | 142 | 2.0 | 10.0 | 0.00 | 0.00 | 0.00 | 28 | 1015.4 |
| 20260901180022 | 94 | 186 | 3.0 | 8.0 | 0.00 | 0.00 | 0.00 | 62 | 1016.4 |
| 20260901175503 | 94 | 197 | 3.0 | 9.0 | 0.00 | 0.00 | 0.00 | 65 | 1016.5 |
| 20260901175007 | 93 | 172 | 3.0 | 10.0 | 0.00 | 0.00 | 0.00 | 64 | 1016.5 |
| 20260901174554 | 97 | 137 | 0.0 | 12.0 | 0.00 | 0.00 | 0.00 | 29 | 1015.8 |
| 20260901174516 | 93 | 165 | 2.0 | 10.0 | 0.00 | 0.00 | 0.00 | 66 | 1016.5 |
| 20260901174009 | 93 | 99 | 2.0 | 9.0 | 0.00 | 0.00 | 0.00 | 65 | 1016.6 |
| 20260901173511 | 93 | 226 | 2.0 | 9.0 | 0.00 | 0.00 | 0.00 | 66 | 1016.6 |
| 20260901173049 | 96 | 192 | 0.0 | 12.0 | 0.00 | 0.00 | 0.00 | 29 | 1016.0 |
| 20260901173021 | 92 | 217 | 3.0 | 9.0 | 0.00 | 0.00 | 0.00 | 66 | 1016.6 |
| 20260901172510 | 92 | 186 | 2.0 | 6.0 | 0.00 | 0.00 | 0.00 | 67 | 1016.8 |
| 20260901172015 | 91 | 223 | 2.0 | 6.0 | 0.00 | 0.00 | 0.00 | 68 | 1016.8 |
| 20260901171548 | 96 | 131 | 6.0 | 11.0 | 0.00 | 0.00 | 0.00 | 29 | 1016.3 |
| 20260901171526 | 91 | 239 | 1.0 | 6.0 | 0.00 | 0.00 | 0.00 | 66 | 1016.8 |
| 20260901171014 | 91 | 232 | 2.0 | 5.0 | 0.00 | 0.00 | 0.00 | 67 | 1016.8 |
| 20260901170517 | 90 | 186 | 1.0 | 5.0 | 0.00 | 0.00 | 0.00 | 67 | 1016.8 |
| 20260901170055 | 90 | 77 | 1.0 | 6.0 | 0.00 | 0.00 | 0.00 | 69 | 1017.0 |
| 20260901170040 | 95 | 121 | 2.0 | 10.0 | 0.00 | 0.00 | 0.00 | 32 | 1016.3 |
| 20260901165515 | 90 | 257 | 3.0 | 6.0 | 0.00 | 0.00 | 0.00 | 68 | 1017.0 |
| 20260901165005 | 89 | 194 | 2.0 | 7.0 | 0.00 | 0.00 | 0.00 | 69 | 1017.0 |
| 20260901164546 | 95 | 198 | 0.0 | 8.0 | 0.00 | 0.00 | 0.00 | 34 | 1016.4 |
| 20260901164515 | 89 | 217 | 3.0 | 7.0 | 0.00 | 0.00 | 0.00 | 70 | 1017.0 |
| 20260901164004 | 89 | 277 | 3.0 | 7.0 | 0.00 | 0.00 | 0.00 | 69 | 1016.9 |
| 20260901163508 | 89 | 232 | 1.0 | 7.0 | 0.00 | 0.00 | 0.00 | 69 | 1016.9 |
| 20260901163039 | 96 | 120 | 0.0 | 6.0 | 0.00 | 0.00 | 0.00 | 33 | 1016.5 |
| 20260901163021 | 88 | 250 | 2.0 | 7.0 | 0.00 | 0.00 | 0.00 | 70 | 1016.9 |
| 20260901162508 | 88 | 311 | 1.0 | 9.0 | 0.00 | 0.00 | 0.00 | 72 | 1016.9 |
| 20260901162011 | 88 | 278 | 2.0 | 9.0 | 0.00 | 0.00 | 0.00 | 72 | 1016.8 |
| 20260901161546 | 94 | 171 | 2.0 | 12.0 | 0.00 | 0.00 | 0.00 | 35 | 1016.6 |
| 20260901161523 | 87 | 184 | 3.0 | 9.0 | 0.00 | 0.00 | 0.00 | 72 | 1016.8 |
| 20260901161014 | 87 | 185 | 5.0 | 7.0 | 0.00 | 0.00 | 0.00 | 71 | 1016.9 |
| 20260901160511 | 86 | 256 | 1.0 | 6.0 | 0.00 | 0.00 | 0.00 | 73 | 1016.9 |
| 20260901160033 | 86 | 253 | 2.0 | 5.0 | 0.00 | 0.00 | 0.00 | 73 | 1016.9 |
| 20260901155513 | 85 | 175 | 1.0 | 5.0 | 0.00 | 0.00 | 0.00 | 73 | 1016.9 |
| 20260901155016 | 85 | 281 | 0.0 | 6.0 | 0.00 | 0.00 | 0.00 | 72 | 1017.0 |
| 20260901154532 | 85 | 244 | 1.0 | 7.0 | 0.00 | 0.00 | 0.00 | 72 | 1017.0 |
| 20260901154530 | 97 | 152 | 0.0 | 1.0 | 0.00 | 0.00 | 0.00 | 32 | 1016.5 |
| 20260901154017 | 85 | 263 | 2.0 | 8.0 | 0.00 | 0.00 | 0.00 | 71 | 1017.0 |
| 20260901153505 | 85 | 213 | 5.0 | 8.0 | 0.00 | 0.00 | 0.00 | 71 | 1016.9 |
| 20260901153031 | 96 | 156 | 0.0 | 2.0 | 0.00 | 0.00 | 0.00 | 33 | 1016.6 |
| 20260901153017 | 85 | 191 | 1.0 | 7.0 | 0.00 | 0.00 | 0.00 | 72 | 1016.9 |
| 20260901152509 | 85 | 293 | 2.0 | 7.0 | 0.00 | 0.00 | 0.00 | 73 | 1016.9 |
| 20260901152008 | 85 | 188 | 2.0 | 5.0 | 0.00 | 0.00 | 0.00 | 72 | 1016.9 |
| 20260901151523 | 85 | 302 | 1.0 | 6.0 | 0.00 | 0.00 | 0.00 | 71 | 1016.9 |
| 20260901151515 | 94 | 131 | 0.0 | 4.0 | 0.00 | 0.00 | 0.00 | 34 | 1016.7 |
| 20260901151010 | 85 | 238 | 2.0 | 7.0 | 0.00 | 0.00 | 0.00 | 72 | 1016.8 |
| 20260901150513 | 85 | 223 | 1.0 | 7.0 | 0.00 | 0.00 | 0.00 | 71 | 1016.8 |
| 20260901150029 | 85 | 278 | 2.0 | 7.0 | 0.00 | 0.00 | 0.00 | 72 | 1016.8 |
| 20260901150011 | 93 | 219 | 0.0 | 2.0 | 0.00 | 0.00 | 0.00 | 36 | 1016.6 |
| 20260901145512 | 85 | 257 | 3.0 | 7.0 | 0.00 | 0.00 | 0.00 | 72 | 1016.8 |
| 20260901145014 | 84 | 155 | 2.0 | 7.0 | 0.00 | 0.00 | 0.00 | 72 | 1016.8 |
| 20260901144530 | 84 | 198 | 2.0 | 5.0 | 0.00 | 0.00 | 0.00 | 73 | 1016.7 |
| 20260901144507 | 92 | 134 | 0.0 | 0.0 | 0.00 | 0.00 | 0.00 | 40 | 1016.8 |
| 20260901144016 | 84 | 182 | 1.0 | 6.0 | 0.00 | 0.00 | 0.00 | 74 | 1016.7 |
| 20260901143518 | 83 | 199 | 1.0 | 6.0 | 0.00 | 0.00 | 0.00 | 76 | 1016.7 |
| 20260901143032 | 83 | 246 | 0.0 | 8.0 | 0.00 | 0.00 | 0.00 | 78 | 1016.8 |
| 20260901143002 | 88 | 111 | 0.0 | 4.0 | 0.00 | 0.00 | 0.00 | 46 | 1016.9 |
| 20260901142505 | 82 | 187 | 4.0 | 8.0 | 0.00 | 0.00 | 0.00 | 76 | 1016.7 |
| 20260901142006 | 81 | 230 | 2.0 | 6.0 | 0.00 | 0.00 | 0.00 | 78 | 1016.8 |
| 20260901141558 | 86 | 116 | 0.0 | 4.0 | 0.00 | 0.00 | 0.00 | 48 | 1016.8 |
| 20260901141516 | 81 | 290 | 1.0 | 6.0 | 0.00 | 0.00 | 0.00 | 78 | 1016.8 |
| 20260901141010 | 80 | 164 | 1.0 | 5.0 | 0.00 | 0.00 | 0.00 | 79 | 1016.8 |
| 20260901140512 | 80 | 137 | 1.0 | 4.0 | 0.00 | 0.00 | 0.00 | 79 | 1016.9 |
| 20260901140051 | 83 | 113 | 1.0 | 4.0 | 0.00 | 0.00 | 0.00 | 51 | 1017.0 |
| 20260901140029 | 80 | 192 | 1.0 | 5.0 | 0.00 | 0.00 | 0.00 | 80 | 1016.9 |
| 20260901135514 | 79 | 209 | 1.0 | 5.0 | 0.00 | 0.00 | 0.00 | 81 | 1017.0 |
| 20260901135014 | 79 | 180 | 1.0 | 5.0 | 0.00 | 0.00 | 0.00 | 82 | 1017.0 |
| 20260901134545 | 82 | 112 | 3.0 | 5.0 | 0.00 | 0.00 | 0.00 | 54 | 1016.9 |
| 20260901134530 | 78 | 260 | 1.0 | 5.0 | 0.00 | 0.00 | 0.00 | 81 | 1017.0 |
| 20260901134013 | 78 | 257 | 1.0 | 5.0 | 0.00 | 0.00 | 0.00 | 83 | 1017.0 |
| 20260901133515 | 78 | 186 | 1.0 | 9.0 | 0.00 | 0.00 | 0.00 | 82 | 1017.0 |
| 20260901133042 | 80 | 117 | 3.0 | 5.0 | 0.00 | 0.00 | 0.00 | 54 | 1016.8 |
| 20260901133029 | 77 | 188 | 2.0 | 9.0 | 0.00 | 0.00 | 0.00 | 84 | 1017.1 |
| 20260901132516 | 77 | 188 | 2.0 | 5.0 | 0.00 | 0.00 | 0.00 | 85 | 1017.1 |
| 20260901132006 | 76 | 283 | 1.0 | 7.0 | 0.00 | 0.00 | 0.00 | 86 | 1017.2 |
| 20260901131540 | 79 | 93 | 0.0 | 4.0 | 0.00 | 0.00 | 0.00 | 55 | 1016.8 |
| 20260901131522 | 75 | 179 | 2.0 | 7.0 | 0.00 | 0.00 | 0.00 | 86 | 1017.2 |
| 20260901131008 | 75 | 194 | 0.0 | 5.0 | 0.00 | 0.00 | 0.00 | 87 | 1017.2 |
| 20260901130508 | 75 | 179 | 1.0 | 5.0 | 0.00 | 0.00 | 0.00 | 87 | 1017.2 |
| 20260901130035 | 78 | 114 | 1.0 | 3.0 | 0.00 | 0.00 | 0.00 | 56 | 1016.6 |
| 20260901130023 | 74 | 136 | 1.0 | 6.0 | 0.00 | 0.00 | 0.00 | 87 | 1017.1 |
| 20260901125503 | 74 | 218 | 2.0 | 6.0 | 0.00 | 0.00 | 0.00 | 88 | 1017.0 |
| 20260901125002 | 74 | 175 | 2.0 | 6.0 | 0.00 | 0.00 | 0.00 | 88 | 1017.0 |
| 20260901124534 | 0 | 0.0 | 0.0 | 0.00 | 0.00 | 0.00 | 1016.5 | ||
| 20260901124505 | 74 | 186 | 2.0 | 6.0 | 0.00 | 0.00 | 0.00 | 88 | 1017.0 |
| 20260901124003 | 73 | 180 | 1.0 | 6.0 | 0.00 | 0.00 | 0.00 | 88 | 1017.0 |
| 20260901123503 | 73 | 192 | 1.0 | 5.0 | 0.00 | 0.00 | 0.00 | 89 | 1017.0 |
| 20260901123035 | 0 | 0.0 | 0.0 | 0.00 | 0.00 | 0.00 | 1016.2 | ||
| 20260901123007 | 73 | 200 | 1.0 | 5.0 | 0.00 | 0.00 | 0.00 | 89 | 1017.0 |
| 20260901122504 | 73 | 180 | 2.0 | 4.0 | 0.00 | 0.00 | 0.00 | 89 | 1017.0 |
| 20260901122004 | 73 | 175 | 1.0 | 5.0 | 0.00 | 0.00 | 0.00 | 89 | 1016.9 |
| 20260901121521 | 0 | 0.0 | 0.0 | 0.00 | 0.00 | 0.00 | 1016.1 | ||
| 20260901121511 | 73 | 200 | 1.0 | 6.0 | 0.00 | 0.00 | 0.00 | 89 | 1016.9 |
| 20260901121007 | 73 | 182 | 2.0 | 6.0 | 0.00 | 0.00 | 0.00 | 89 | 1016.9 |
| 20260901120506 | 73 | 180 | 2.0 | 5.0 | 0.00 | 0.00 | 0.00 | 89 | 1016.8 |
| 20260901120019 | 73 | 198 | 0.0 | 5.0 | 0.00 | 0.00 | 0.00 | 89 | 1016.8 |
| 20260901115510 | 73 | 190 | 1.0 | 5.0 | 0.00 | 0.00 | 0.00 | 89 | 1016.7 |
| 20260901115011 | 73 | 200 | 1.0 | 4.0 | 0.00 | 0.00 | 0.00 | 89 | 1016.6 |
| 20260901114512 | 0 | 0.0 | 0.0 | 0.00 | 0.00 | 0.00 | 1015.6 | ||
| 20260901114504 | 73 | 175 | 2.0 | 6.0 | 0.00 | 0.00 | 0.00 | 89 | 1016.5 |
| 20260901114003 | 73 | 229 | 2.0 | 6.0 | 0.00 | 0.00 | 0.00 | 89 | 1016.4 |
| 20260901113503 | 73 | 184 | 2.0 | 6.0 | 0.00 | 0.00 | 0.00 | 89 | 1016.3 |
| 20260901113006 | 73 | 182 | 2.0 | 5.0 | 0.00 | 0.00 | 0.00 | 89 | 1016.3 |
| 20260901112503 | 73 | 234 | 2.0 | 5.0 | 0.00 | 0.00 | 0.00 | 89 | 1016.3 |
| 20260901112003 | 73 | 182 | 1.0 | 6.0 | 0.00 | 0.00 | 0.00 | 89 | 1016.2 |
| 20260901111603 | 0 | 0.0 | 0.0 | 0.00 | 0.00 | 0.00 | 1015.9 | ||
| 20260901111509 | 73 | 196 | 2.0 | 6.0 | 0.00 | 0.00 | 0.00 | 89 | 1016.2 |
| 20260901111006 | 73 | 182 | 2.0 | 8.0 | 0.00 | 0.00 | 0.00 | 89 | 1016.2 |
| 20260901110503 | 73 | 206 | 2.0 | 8.0 | 0.00 | 0.00 | 0.00 | 89 | 1016.2 |
| 20260901110055 | 0 | 0.0 | 0.0 | 0.00 | 0.00 | 0.00 | 1015.6 | ||
| 20260901110019 | 73 | 235 | 2.0 | 6.0 | 0.00 | 0.00 | 0.00 | 89 | 1016.2 |
| 20260901105514 | 73 | 227 | 3.0 | 6.0 | 0.00 | 0.00 | 0.00 | 89 | 1016.1 |
| 20260901105008 | 73 | 203 | 2.0 | 6.0 | 0.00 | 0.00 | 0.00 | 89 | 1016.2 |
| 20260901104550 | 0 | 134 | 0.0 | 1.0 | 0.00 | 0.00 | 0.00 | 1015.7 | |
| 20260901104527 | 73 | 198 | 2.0 | 7.0 | 0.00 | 0.00 | 0.00 | 89 | 1016.2 |
| 20260901104012 | 73 | 197 | 2.0 | 7.0 | 0.00 | 0.00 | 0.00 | 89 | 1016.2 |
| 20260901103511 | 73 | 202 | 2.0 | 6.0 | 0.00 | 0.00 | 0.00 | 89 | 1016.2 |
| 20260901103048 | 74 | 124 | 0.0 | 1.0 | 0.00 | 0.00 | 0.00 | 58 | 1015.6 |
| 20260901103004 | 73 | 186 | 2.0 | 6.0 | 0.00 | 0.00 | 0.00 | 88 | 1016.3 |
| 20260901102504 | 73 | 204 | 3.0 | 6.0 | 0.00 | 0.00 | 0.00 | 88 | 1016.3 |
| 20260901102002 | 73 | 189 | 1.0 | 5.0 | 0.00 | 0.00 | 0.00 | 88 | 1016.2 |
| 20260901101601 | 75 | 121 | 0.0 | 1.0 | 0.00 | 0.00 | 0.00 | 57 | 1015.6 |
| 20260901101507 | 73 | 192 | 0.0 | 6.0 | 0.00 | 0.00 | 0.00 | 88 | 1016.2 |
| 20260901101005 | 73 | 209 | 1.0 | 6.0 | 0.00 | 0.00 | 0.00 | 88 | 1016.1 |
| 20260901100504 | 74 | 205 | 2.0 | 7.0 | 0.00 | 0.00 | 0.00 | 88 | 1016.1 |
| 20260901100038 | 75 | 120 | 0.0 | 1.0 | 0.00 | 0.00 | 0.00 | 56 | 1015.6 |
| 20260901100012 | 74 | 194 | 2.0 | 7.0 | 0.00 | 0.00 | 0.00 | 88 | 1016.0 |
| 20260901095512 | 74 | 196 | 2.0 | 8.0 | 0.00 | 0.00 | 0.00 | 88 | 1016.0 |
| 20260901095008 | 74 | 202 | 2.0 | 8.0 | 0.00 | 0.00 | 0.00 | 88 | 1016.0 |
| 20260901094538 | 75 | 120 | 0.0 | 0.0 | 0.00 | 0.00 | 0.00 | 55 | 1015.5 |
| 20260901094519 | 74 | 254 | 1.0 | 6.0 | 0.00 | 0.00 | 0.00 | 88 | 1016.0 |
| 20260901094011 | 74 | 229 | 3.0 | 6.0 | 0.00 | 0.00 | 0.00 | 88 | 1016.0 |
| 20260901093512 | 74 | 207 | 2.0 | 5.0 | 0.00 | 0.00 | 0.00 | 88 | 1016.0 |
| 20260901093030 | 75 | 120 | 0.0 | 0.0 | 0.00 | 0.00 | 0.00 | 53 | 1015.6 |
| 20260901093026 | 74 | 187 | 1.0 | 5.0 | 0.00 | 0.00 | 0.00 | 88 | 1016.0 |